DW7995 Weather Reports


Display with metric or nautical units.
time (UTC)temp
F
wind
direction
speed
MPH
gust
MPH
rain 1hr
in
rain 24hr
in
rain mn
in
humidity
%
barometer
mb
20260510215039 75 68 5.0 16.0 0.00 0.00 0.00 41 1021.2
20260510214549 75 89 8.0 17.0 0.00 0.00 0.00 42 1021.2
20260510214042 75 72 8.0 19.0 0.00 0.00 0.00 41 1021.2
20260510213539 75 82 7.0 19.0 0.00 0.00 0.00 40 1021.2
20260510213049 75 184 9.0 18.0 0.00 0.00 0.00 40 1021.2
20260510212538 75 79 8.0 19.0 0.00 0.00 0.00 40 1021.2
20260510212040 75 76 11.0 19.0 0.00 0.00 0.00 41 1021.2
20260510211550 75 283 9.0 18.0 0.00 0.00 0.00 41 1021.2
20260510211039 75 68 11.0 18.0 0.00 0.00 0.00 40 1021.2
20260510210539 75 72 9.0 18.0 0.00 0.00 0.00 41 1021.2
20260510210055 75 84 8.0 18.0 0.00 0.00 0.00 40 1021.2
20260510205539 76 81 9.0 17.0 0.00 0.00 0.00 39 1021.2
20260510205041 76 142 9.0 19.0 0.00 0.00 0.00 39 1021.2
20260510204549 76 70 8.0 19.0 0.00 0.00 0.00 39 1021.2
20260510204038 76 102 8.0 18.0 0.00 0.00 0.00 38 1021.2
20260510203541 76 80 6.0 18.0 0.00 0.00 0.00 37 1021.2
20260510203051 77 39 5.0 18.0 0.00 0.00 0.00 38 1021.2
20260510202539 76 64 9.0 18.0 0.00 0.00 0.00 37 1021.2
20260510202038 77 73 9.0 18.0 0.00 0.00 0.00 37 1021.2
20260510201551 77 68 6.0 18.0 0.00 0.00 0.00 37 1021.2
20260510201038 77 117 5.0 18.0 0.00 0.00 0.00 37 1021.2
20260510200538 76 70 9.0 19.0 0.00 0.00 0.00 37 1021.2
20260510200051 77 68 9.0 19.0 0.00 0.00 0.00 36 1021.2
20260510195540 77 88 6.0 19.0 0.00 0.00 0.00 35 1021.2
20260510195039 78 110 7.0 19.0 0.00 0.00 0.00 36 1021.2
20260510194556 78 68 4.0 19.0 0.00 0.00 0.00 36 1021.2
20260510194038 79 24 5.0 19.0 0.00 0.00 0.00 34 1021.2
20260510193539 80 68 7.0 19.0 0.00 0.00 0.00 33 1021.2
20260510193055 80 83 8.0 17.0 0.00 0.00 0.00 33 1021.2
20260510192539 80 335 4.0 16.0 0.00 0.00 0.00 32 1021.2
20260510192039 79 343 5.0 16.0 0.00 0.00 0.00 33 1021.2
20260510191556 79 44 7.0 16.0 0.00 0.00 0.00 33 1021.2
20260510191038 79 77 8.0 16.0 0.00 0.00 0.00 34 1021.2
20260510190539 79 47 9.0 16.0 0.00 0.00 0.00 33 1021.2
20260510190054 80 84 4.0 15.0 0.00 0.00 0.00 29 1021.2
20260510185539 79 0 2.0 12.0 0.00 0.00 0.00 27 1021.2
20260510185039 78 70 4.0 12.0 0.00 0.00 0.00 28 1021.2
20260510184600 78 78 2.0 9.0 0.00 0.00 0.00 28 1021.2
20260510184042 78 82 0.0 6.0 0.00 0.00 0.00 28 1021.2
20260510183540 79 321 1.0 12.0 0.00 0.00 0.00 27 1021.2
20260510183047 79 0 0.0 12.0 0.00 0.00 0.00 27 1021.2
20260510182540 80 346 3.0 12.0 0.00 0.00 0.00 27 1021.2
20260510182039 81 0 0.0 9.0 0.00 0.00 0.00 22 1021.2
20260510181545 82 349 2.0 9.0 0.00 0.00 0.00 20 1021.2
20260510181041 81 321 2.0 10.0 0.00 0.00 0.00 21 1021.2
20260510180540 80 354 3.0 15.0 0.00 0.00 0.00 21 1021.2
20260510180043 80 333 3.0 15.0 0.00 0.00 0.00 22 1021.2
20260510175539 80 207 4.0 15.0 0.00 0.00 0.00 20 1021.2
20260510175039 81 212 5.0 15.0 0.00 0.00 0.00 19 1021.2
20260510174547 80 125 7.0 16.0 0.00 0.00 0.00 20 1021.2
20260510174038 81 240 5.0 16.0 0.00 0.00 0.00 21 1021.2
20260510173538 81 51 0.0 9.0 0.00 0.00 0.00 22 1021.2
20260510173046 81 57 3.0 9.0 0.00 0.00 0.00 21 1021.2
20260510172539 83 141 0.0 8.0 0.00 0.00 0.00 19 1021.2
20260510172042 83 279 1.0 8.0 0.00 0.00 0.00 15 1021.2
20260510171559 82 326 1.0 12.0 0.00 0.00 0.00 14 1021.2
20260510171038 84 228 3.0 12.0 0.00 0.00 0.00 14 1021.2
20260510170539 84 220 6.0 12.0 0.00 0.00 0.00 13 1021.2
20260510170047 83 0 0.0 12.0 0.00 0.00 0.00 14 1021.2
20260510165539 83 271 5.0 12.0 0.00 0.00 0.00 14 1021.2
20260510165039 83 34 0.0 9.0 0.00 0.00 0.00 14 1021.2
20260510164548 83 274 1.0 11.0 0.00 0.00 0.00 14 1021.2
20260510164039 82 237 3.0 11.0 0.00 0.00 0.00 14 1021.2
20260510163542 83 355 2.0 17.0 0.00 0.00 0.00 14 1021.2
20260510163054 83 347 1.0 17.0 0.00 0.00 0.00 14 1021.2
20260510162539 82 5 3.0 11.0 0.00 0.00 0.00 15 1021.2
20260510162038 82 17 2.0 9.0 0.00 0.00 0.00 14 1021.2
20260510161547 82 174 2.0 9.0 0.00 0.00 0.00 14 1021.2
20260510161040 82 226 1.0 8.0 0.00 0.00 0.00 14 1021.2
20260510160539 82 228 2.0 9.0 0.00 0.00 0.00 14 1021.2
20260510160051 82 283 2.0 9.0 0.00 0.00 0.00 15 1021.2
20260510155539 82 37 2.0 9.0 0.00 0.00 0.00 14 1021.2
20260510155040 82 274 2.0 9.0 0.00 0.00 0.00 15 1021.2
20260510154547 82 14 2.0 14.0 0.00 0.00 0.00 14 1021.2
20260510154040 82 282 2.0 14.0 0.00 0.00 0.00 15 1021.2
20260510153538 82 200 1.0 12.0 0.00 0.00 0.00 15 1021.2
20260510153046 81 221 5.0 12.0 0.00 0.00 0.00 14 1021.2
20260510152540 81 190 6.0 12.0 0.00 0.00 0.00 14 1021.2
20260510152040 81 252 3.0 12.0 0.00 0.00 0.00 14 1021.2
20260510151549 82 283 1.0 13.0 0.00 0.00 0.00 14 1021.2
20260510151039 81 230 4.0 13.0 0.00 0.00 0.00 14 1021.2
20260510150540 80 236 5.0 13.0 0.00 0.00 0.00 14 1021.2
20260510150055 80 208 4.0 13.0 0.00 0.00 0.00 13 1021.2
20260510145540 80 230 4.0 14.0 0.00 0.00 0.00 13 1021.2
20260510145040 80 229 6.0 14.0 0.00 0.00 0.00 13 1021.2
20260510144603 80 283 4.0 13.0 0.00 0.00 0.00 13 1021.2
20260510144039 79 226 4.0 14.0 0.00 0.00 0.00 13 1021.2
20260510143538 79 293 5.0 14.0 0.00 0.00 0.00 13 1021.2
20260510143101 79 162 5.0 14.0 0.00 0.00 0.00 14 1021.2
20260510142539 78 224 7.0 14.0 0.00 0.00 0.00 14 1021.2
20260510142039 78 243 4.0 13.0 0.00 0.00 0.00 14 1021.2
20260510141547 78 231 6.0 13.0 0.00 0.00 0.00 14 1021.2
20260510141040 77 213 5.0 13.0 0.00 0.00 0.00 15 1021.2
20260510140539 77 211 5.0 10.0 0.00 0.00 0.00 14 1021.2
20260510140053 77 221 3.0 11.0 0.00 0.00 0.00 15 1021.2
20260510135539 76 227 5.0 11.0 0.00 0.00 0.00 15 1021.2
20260510135039 76 240 5.0 13.0 0.00 0.00 0.00 15 1021.2
20260510134604 76 240 6.0 13.0 0.00 0.00 0.00 16 1021.2
20260510134043 75 200 4.0 12.0 0.00 0.00 0.00 16 1021.2
20260510133539 75 240 4.0 12.0 0.00 0.00 0.00 16 1021.2
20260510133049 74 217 5.0 12.0 0.00 0.00 0.00 17 1021.2
20260510132539 73 229 5.0 10.0 0.00 0.00 0.00 18 1021.2
20260510132040 72 205 6.0 10.0 0.00 0.00 0.00 19 1021.2
20260510131547 71 235 5.0 12.0 0.00 0.00 0.00 20 1021.2
20260510131039 70 252 5.0 12.0 0.00 0.00 0.00 21 1021.2
20260510130540 67 192 4.0 10.0 0.00 0.00 0.00 23 1021.2
20260510130048 61 0 3.0 10.0 0.00 0.00 0.00 30 1021.2
20260510125539 55 0 0.0 0.0 0.00 0.00 0.00 43 1021.2
20260510125038 53 0 0.0 0.0 0.00 0.00 0.00 44 1021.2
20260510124559 52 0 0.0 0.0 0.00 0.00 0.00 46 1021.2
20260510124040 51 0 0.0 0.0 0.00 0.00 0.00 47 1021.2
20260510123539 49 0 0.0 0.0 0.00 0.00 0.00 48 1021.2
20260510123045 49 0 0.0 0.0 0.00 0.00 0.00 48 1021.2
20260510122540 48 0 0.0 0.0 0.00 0.00 0.00 48 1021.2
20260510122039 49 0 0.0 0.0 0.00 0.00 0.00 47 1021.2
20260510121551 49 0 0.0 0.0 0.00 0.00 0.00 47 1021.2
20260510121039 49 0 0.0 0.0 0.00 0.00 0.00 48 1021.2
20260510120538 49 0 0.0 0.0 0.00 0.00 0.00 47 1021.2
20260510120043 49 0 0.0 0.0 0.00 0.00 0.00 46 1021.2
20260510115539 50 0 0.0 0.0 0.00 0.00 0.00 46 1021.2
20260510115039 49 0 0.0 0.0 0.00 0.00 0.00 46 1021.2
20260510114547 50 0 0.0 0.0 0.00 0.00 0.00 46 1021.2
20260510114040 51 0 0.0 0.0 0.00 0.00 0.00 45 1021.2
20260510113538 51 0 0.0 0.0 0.00 0.00 0.00 44 1021.2
20260510113044 52 0 0.0 0.0 0.00 0.00 0.00 43 1021.2
20260510112539 53 0 0.0 0.0 0.00 0.00 0.00 43 1021.2
20260510112043 53 0 0.0 0.0 0.00 0.00 0.00 43 1021.2
20260510111554 53 0 0.0 0.0 0.00 0.00 0.00 43 1021.2
20260510111038 53 0 0.0 0.0 0.00 0.00 0.00 43 1021.2
20260510110538 53 0 0.0 0.0 0.00 0.00 0.00 43 1021.2
20260510110045 54 0 0.0 0.0 0.00 0.00 0.00 43 1021.2
20260510105540 55 0 0.0 0.0 0.00 0.00 0.00 41 1021.2
20260510105040 56 0 0.0 0.0 0.00 0.00 0.00 39 1021.2
20260510104608 57 0 0.0 0.0 0.00 0.00 0.00 38 1021.2
20260510104042 58 0 0.0 0.0 0.00 0.00 0.00 37 1021.2
20260510103539 59 0 0.0 0.0 0.00 0.00 0.00 37 1021.2
20260510103049 60 0 0.0 0.0 0.00 0.00 0.00 36 1021.2
20260510102539 61 0 0.0 0.0 0.00 0.00 0.00 35 1021.2
20260510102039 62 0 0.0 1.0 0.00 0.00 0.00 34 1021.2
20260510101549 64 0 0.0 3.0 0.00 0.00 0.00 32 1021.2
20260510101042 65 0 0.0 5.0 0.00 0.00 0.00 31 1021.2
20260510100542 67 0 1.0 10.0 0.00 0.00 0.00 29 1021.2
20260510100053 67 293 2.0 10.0 0.00 0.00 0.00 28 1021.2
20260510095540 67 238 1.0 6.0 0.00 0.00 0.00 29 1021.2
20260510095038 67 0 0.0 5.0 0.00 0.00 0.00 29 1021.2
20260510094553 67 0 0.0 5.0 0.00 0.00 0.00 29 1021.2
20260510094043 66 236 2.0 5.0 0.00 0.00 0.00 30 1021.2
20260510093540 66 0 0.0 5.0 0.00 0.00 0.00 30 1021.2
20260510093045 66 0 0.0 5.0 0.00 0.00 0.00 31 1021.2
20260510092540 65 330 0.0 5.0 0.00 0.00 0.00 32 1021.2
20260510092044 66 0 0.0 5.0 0.00 0.00 0.00 32 1021.2
20260510091550 66 0 0.0 5.0 0.00 0.00 0.00 32 1021.2
20260510091038 66 0 0.0 4.0 0.00 0.00 0.00 31 1021.2
20260510090539 66 354 0.0 4.0 0.00 0.00 0.00 31 1021.2
20260510090048 66 160 0.0 4.0 0.00 0.00 0.00 31 1021.2
20260510085542 67 0 0.0 4.0 0.00 0.00 0.00 31 1021.2
20260510085039 67 246 0.0 4.0 0.00 0.00 0.00 31 1021.2
20260510084548 68 285 1.0 6.0 0.00 0.00 0.00 30 1021.2
20260510084040 68 245 0.0 6.0 0.00 0.00 0.00 30 1021.2
20260510083539 68 0 2.0 6.0 0.00 0.00 0.00 30 1021.2
20260510083048 67 238 0.0 3.0 0.00 0.00 0.00 30 1021.2
20260510082538 68 0 0.0 7.0 0.00 0.00 0.00 32 1021.2
20260510082039 68 218 2.0 7.0 0.00 0.00 0.00 32 1021.2
20260510081558 68 217 2.0 7.0 0.00 0.00 0.00 31 1021.2
20260510081038 68 249 1.0 7.0 0.00 0.00 0.00 31 1021.2
20260510080540 68 233 2.0 10.0 0.00 0.00 0.00 31 1021.2
20260510080046 69 254 2.0 11.0 0.00 0.00 0.00 31 1021.2
20260510075539 69 233 4.0 11.0 0.00 0.00 0.00 29 1021.2
20260510075040 69 245 4.0 11.0 0.00 0.00 0.00 30 1021.2
20260510074552 69 0 2.0 11.0 0.00 0.00 0.00 30 1021.2
20260510074038 69 229 2.0 6.0 0.00 0.00 0.00 29 1021.2
20260510073539 69 241 1.0 11.0 0.00 0.00 0.00 28 1021.2
20260510073050 70 217 4.0 11.0 0.00 0.00 0.00 28 1021.2
20260510072540 70 210 6.0 11.0 0.00 0.00 0.00 28 1021.2
20260510072039 70 210 5.0 12.0 0.00 0.00 0.00 27 1021.2
20260510071548 70 163 5.0 12.0 0.00 0.00 0.00 27 1021.2
20260510071038 70 131 5.0 13.0 0.00 0.00 0.00 27 1021.2
20260510070538 71 205 6.0 15.0 0.00 0.00 0.00 26 1021.2
20260510070055 71 231 8.0 15.0 0.00 0.00 0.00 26 1021.2
20260510065540 71 122 7.0 17.0 0.00 0.00 0.00 25 1021.2
20260510065039 71 211 8.0 17.0 0.00 0.00 0.00 25 1021.2
20260510064544 71 219 8.0 17.0 0.00 0.00 0.00 25 1021.2
20260510064038 71 217 8.0 14.0 0.00 0.00 0.00 25 1021.2
20260510063538 71 143 6.0 17.0 0.00 0.00 0.00 25 1021.2
20260510063051 71 217 7.0 17.0 0.00 0.00 0.00 25 1021.2
20260510062539 71 193 7.0 15.0 0.00 0.00 0.00 25 1021.2
20260510062043 71 189 6.0 17.0 0.00 0.00 0.00 26 1021.2
20260510061543 71 232 8.0 17.0 0.00 0.00 0.00 26 1021.2
20260510061042 71 156 6.0 14.0 0.00 0.00 0.00 26 1021.2
20260510060539 70 183 6.0 14.0 0.00 0.00 0.00 27 1021.2
20260510060057 71 158 7.0 16.0 0.00 0.00 0.00 28 1021.2
20260510055539 70 151 4.0 16.0 0.00 0.00 0.00 28 1021.2
20260510055039 70 281 6.0 16.0 0.00 0.00 0.00 28 1021.2
20260510054549 70 226 6.0 14.0 0.00 0.00 0.00 28 1021.2
20260510054040 70 258 4.0 14.0 0.00 0.00 0.00 29 1021.2
20260510053542 70 142 4.0 15.0 0.00 0.00 0.00 29 1021.2
20260510053047 70 243 4.0 15.0 0.00 0.00 0.00 29 1021.2
20260510052539 70 172 3.0 14.0 0.00 0.00 0.00 29 1021.2
20260510052039 70 87 1.0 14.0 0.00 0.00 0.00 29 1021.2
20260510051613 70 0 2.0 14.0 0.00 0.00 0.00 28 1021.2
20260510051042 70 244 0.0 9.0 0.00 0.00 0.00 28 1021.2
20260510050538 70 8 2.0 10.0 0.00 0.00 0.00 28 1021.2
20260510050045 70 83 1.0 10.0 0.00 0.00 0.00 27 1021.2
20260510045539 70 319 1.0 9.0 0.00 0.00 0.00 27 1021.2
20260510045039 70 212 1.0 11.0 0.00 0.00 0.00 27 1021.2
20260510044549 69 71 3.0 11.0 0.00 0.00 0.00 27 1021.2
20260510044040 69 65 0.0 5.0 0.00 0.00 0.00 27 1021.2
20260510043540 69 0 0.0 11.0 0.00 0.00 0.00 27 1021.2
20260510043125 69 266 0.0 11.0 0.00 0.00 0.00 26 1021.2
20260510042540 69 222 2.0 11.0 0.00 0.00 0.00 26 1021.2
20260510042040 68 242 1.0 11.0 0.00 0.00 0.00 26 1021.2
20260510041552 66 122 2.0 11.0 0.00 0.00 0.00 27 1021.2
20260510041040 62 230 3.0 11.0 0.00 0.00 0.00 31 1021.2
20260510040539 52 216 0.0 4.0 0.00 0.00 0.00 37 1021.2
20260510040050 50 0 0.0 0.0 0.00 0.00 0.00 38 1021.2
20260510035538 51 0 0.0 0.0 0.00 0.00 0.00 37 1021.2
20260510035042 51 0 0.0 0.0 0.00 0.00 0.00 36 1021.2
20260510034550 52 0 0.0 0.0 0.00 0.00 0.00 35 1021.2
20260510034039 52 0 0.0 0.0 0.00 0.00 0.00 35 1021.2
20260510033541 52 0 0.0 0.0 0.00 0.00 0.00 35 1021.2
20260510033049 53 0 0.0 0.0 0.00 0.00 0.00 35 1021.2
20260510032539 53 0 0.0 0.0 0.00 0.00 0.00 34 1021.2
20260510032039 53 0 0.0 0.0 0.00 0.00 0.00 35 1021.2
20260510031615 53 0 0.0 0.0 0.00 0.00 0.00 34 1021.2
20260510031039 54 0 0.0 0.0 0.00 0.00 0.00 34 1021.2
20260510030540 54 0 0.0 0.0 0.00 0.00 0.00 33 1021.2
20260510030053 55 0 0.0 0.0 0.00 0.00 0.00 32 1021.2
20260510025539 56 0 0.0 0.0 0.00 0.00 0.00 32 1021.2
20260510025039 56 0 0.0 0.0 0.00 0.00 0.00 31 1021.2
20260510024549 57 0 0.0 0.0 0.00 0.00 0.00 31 1021.2
20260510024038 58 0 0.0 0.0 0.00 0.00 0.00 31 1021.2
20260510023538 58 0 0.0 0.0 0.00 0.00 0.00 30 1021.2
20260510023054 59 0 0.0 0.0 0.00 0.00 0.00 30 1021.2
20260510022539 60 0 0.0 0.0 0.00 0.00 0.00 30 1021.2
20260510022039 61 0 0.0 0.0 0.00 0.00 0.00 29 1021.2
20260510021546 62 0 0.0 0.0 0.00 0.00 0.00 28 1021.2
20260510021038 63 0 0.0 0.0 0.00 0.00 0.00 27 1021.2
20260510020541 64 0 0.0 0.0 0.00 0.00 0.00 27 1021.2
20260510020048 65 0 0.0 0.0 0.00 0.00 0.00 26 1021.2
20260510015539 67 0 0.0 0.0 0.00 0.00 0.00 25 1021.2
20260510015040 68 0 0.0 0.0 0.00 0.00 0.00 23 1021.2
20260510014550 69 0 0.0 0.0 0.00 0.00 0.00 23 1021.2
20260510014040 71 0 0.0 0.0 0.00 0.00 0.00 22 1021.2
20260510013540 72 0 0.0 0.0 0.00 0.00 0.00 20 1021.2
20260510013050 74 0 0.0 1.0 0.00 0.00 0.00 19 1021.2
20260510012539 76 0 0.0 2.0 0.00 0.00 0.00 20 1021.2
20260510012039 76 0 0.0 2.0 0.00 0.00 0.00 17 1021.2
20260510011602 76 0 0.0 2.0 0.00 0.00 0.00 18 1021.2
20260510011039 77 0 0.0 0.0 0.00 0.00 0.00 18 1021.2
20260510010541 78 0 0.0 0.0 0.00 0.00 0.00 17 1021.2
20260510005539 81 0 0.0 1.0 0.00 0.00 0.00 15 1021.2
20260510005038 82 0 0.0 2.0 0.00 0.00 0.00 15 1021.2
20260510004551 81 0 0.0 3.0 0.00 0.00 0.00 15 1021.2
20260510004043 81 64 0.0 5.0 0.00 0.00 0.00 15 1021.2
20260510003539 81 5 1.0 5.0 0.00 0.00 0.00 15 1021.2
20260510003046 82 67 0.0 5.0 0.00 0.00 0.00 15 1021.2
20260510002539 82 63 1.0 4.0 0.00 0.00 0.00 15 1021.2
20260510002038 83 11 0.0 5.0 0.00 0.00 0.00 15 1021.2
20260510001550 82 0 0.0 5.0 0.00 0.00 0.00 15 1021.2
20260510001040 82 0 2.0 8.0 0.00 0.00 0.00 15 1021.2
20260510000539 83 0 2.0 8.0 0.00 0.00 0.00 15 1021.2
20260510000056 83 176 3.0 8.0 0.00 0.00 0.00 14 1021.2
20260509235539 83 0 1.0 6.0 0.00 0.00 0.00 14 1021.2
20260509235039 83 95 2.0 6.0 0.00 0.00 0.00 15 1021.2
20260509234547 83 0 0.0 6.0 0.00 0.00 0.00 15 1021.2
20260509234038 83 96 1.0 6.0 0.00 0.00 0.00 15 1021.2
20260509233538 83 139 0.0 10.0 0.00 0.00 0.00 15 1021.2
20260509233047 83 89 3.0 10.0 0.00 0.00 0.00 15 1021.2
20260509232539 83 0 1.0 8.0 0.00 0.00 0.00 15 1021.2
20260509232039 83 64 4.0 8.0 0.00 0.00 0.00 15 1021.2
20260509231554 84 63 0.0 6.0 0.00 0.00 0.00 15 1021.2
20260509231039 84 0 0.0 6.0 0.00 0.00 0.00 15 1021.2
20260509230538 84 328 1.0 5.0 0.00 0.00 0.00 15 1021.2
20260509230050 83 6 1.0 9.0 0.00 0.00 0.00 14 1021.2
20260509225540 83 0 0.0 12.0 0.00 0.00 0.00 15 1021.2
20260509225039 83 72 5.0 12.0 0.00 0.00 0.00 14 1021.2
20260509224552 84 55 4.0 8.0 0.00 0.00 0.00 14 1021.2
20260509224039 84 95 1.0 8.0 0.00 0.00 0.00 15 1021.2
20260509223540 84 155 3.0 7.0 0.00 0.00 0.00 14 1021.2
20260509223049 83 0 0.0 11.0 0.00 0.00 0.00 15 1021.2
20260509222541 83 256 0.0 11.0 0.00 0.00 0.00 15 1021.2
20260509222039 83 0 4.0 11.0 0.00 0.00 0.00 15 1021.2
20260509221550 83 71 4.0 8.0 0.00 0.00 0.00 14 1021.2
20260509221039 84 0 3.0 9.0 0.00 0.00 0.00 14 1021.2
20260509220540 84 229 1.0 9.0 0.00 0.00 0.00 15 1021.2
20260509220049 84 146 4.0 9.0 0.00 0.00 0.00 15 1021.2
20260509215540 83 270 0.0 11.0 0.00 0.00 0.00 15 1021.2